Location: Pedimozza
(42.0500°N, 9.3500°E)
Time: 18:53:56
(UTC+00:00)

GP-B - Pass Details

Date: 19 August 2019
Orbit: 631 x 635 km, 89.8° (Epoch: 17 October)

Event Time Altitude Azimuth Distance (km) Brightness Sun altitude
Rises 19:37:52 0° 13° (NNE) 2,944 6.8 -14.3°
Reaches altitude 10° 19:40:24 10° 26° (NNE) 2,030 5.8 -14.7°
Maximum altitude 19:44:11 27° 84° (E) 1,230 4.2 -15.3°
Enters shadow 19:45:05 25° 105° (ESE) 1,286 4.1 -15.4°
